Weather History for Luverne, MN

Change the Weather History Date:

Sunday, April 7, 2013

  Actual Average (KFSD) Record (KFSD)
Temperature  
Mean Temperature 42 °F 43 °F  
Max Temperature 51 °F 54 °F 86 °F (1988)
Min Temperature 32 °F 31 °F 11 °F (1936)
Degree Days  
Heating Degree Days 24 22  
Month to date heating degree days 166  
Since 1 July heating degree days 7011  
Cooling Degree Days 0 0  
Month to date cooling degree days 0  
Year to date cooling degree days 0  
Moisture  
Dew Point 35 °F    
Average Humidity 83    
Maximum Humidity 100    
Minimum Humidity 54    
Precipitation  
Precipitation 0.22 in 0.09 in 1.79 in (2006)
Month to date precipitation 0.62  
Year to date precipitation 3.54  
Snow  
Snow 0.00 in 0.20 in 5.30 in (2000)
Month to date snowfall 1.4  
Since 1 July snowfall 41.3  
Snow Depth -    
Sea Level Pressure  
Sea Level Pressure 29.81 in    
Wind  
Wind Speed 7 mph (East)    
Max Wind Speed 16 mph    
Max Gust Speed 21 mph    
Visibility 6 miles    
Events Rain    
T = Trace of Precipitation, MM = Missing Value Source: NWS Daily Summary

Daily Weather History Graph

Daily Weather History Graph

Search for Another Location

Airport:

Trip Planner

Search our weather history database for the weather conditions in past years. The results will help you decide how hot, cold, wet, or windy it might be!

Date:

Astronomy

Apr. 07, 2013 Rise Set
Actual Time 6:55 AM CDT 7:59 PM CDT
Civil Twilight 6:26 AM CDT 8:28 PM CDT
Nautical Twilight 5:51 AM CDT 9:03 PM CDT
Astronomical Twilight 5:14 AM CDT 9:40 PM CDT
Moon 5:18 AM CDT (4/7) 5:28 PM CDT (4/7)
Length of Visible Light 14h 02m
Length of Day
13h 03m
Waning Crescent, 8% of the Moon is Illuminated
Apr 7
Waning Crescent
Apr 10
New
Apr 18
First Quarter
Apr 25
Full
May 2
Last Quarter

Hourly Weather History & Observations

Time (CDT) Temp. Windchill Dew Point Humidity Pressure Visibility Wind Dir Wind Speed Gust Speed Precip Events Conditions
12:17 AM 33.8 °F - 32.0 °F 93% 29.82 in 7.0 mi Calm Calm - N/A   Clear
12:37 AM 32.0 °F 27.5 °F 30.2 °F 93% 29.83 in 5.0 mi North 4.6 mph - N/A   Clear
12:57 AM 33.8 °F 27.7 °F 32.0 °F 93% 29.84 in 7.0 mi NNE 6.9 mph - N/A   Clear
1:17 AM 32.0 °F 25.6 °F 32.0 °F 100% 29.84 in 4.0 mi NNE 6.9 mph - N/A   Mostly Cloudy
1:37 AM 33.8 °F 26.4 °F 32.0 °F 93% 29.83 in 4.0 mi NNE 9.2 mph - N/A   Overcast
1:57 AM 33.8 °F 27.0 °F 32.0 °F 93% 29.84 in 5.0 mi NNE 8.1 mph - N/A   Overcast
2:18 AM 33.8 °F 27.7 °F 32.0 °F 93% 29.85 in 5.0 mi North 6.9 mph - N/A   Overcast
2:37 AM 33.8 °F 29.6 °F 32.0 °F 93% 29.85 in 5.0 mi North 4.6 mph - N/A   Overcast
2:57 AM 33.8 °F 30.8 °F 32.0 °F 93% 29.85 in 5.0 mi NNE 3.5 mph - N/A   Overcast
3:18 AM 33.8 °F 30.8 °F 32.0 °F 93% 29.85 in 5.0 mi NNE 3.5 mph - N/A   Overcast
3:37 AM 33.8 °F 28.6 °F 32.0 °F 93% 29.85 in 5.0 mi NNE 5.8 mph - N/A   Overcast
3:57 AM 33.8 °F 29.6 °F 32.0 °F 93% 29.85 in 5.0 mi NNE 4.6 mph - N/A   Overcast
4:18 AM 33.8 °F 27.7 °F 32.0 °F 93% 29.85 in 5.0 mi NNE 6.9 mph - N/A   Overcast
4:37 AM 33.8 °F 27.7 °F 32.0 °F 93% 29.85 in 5.0 mi NE 6.9 mph - N/A   Overcast
4:57 AM 33.8 °F 28.6 °F 32.0 °F 93% 29.85 in 5.0 mi NE 5.8 mph - N/A   Overcast
5:18 AM 33.8 °F 28.6 °F 32.0 °F 93% 29.86 in 4.0 mi NNE 5.8 mph - N/A   Overcast
5:37 AM 32.0 °F 27.5 °F 32.0 °F 100% 29.87 in 4.0 mi NE 4.6 mph - N/A   Overcast
5:57 AM 32.0 °F 24.8 °F 32.0 °F 100% 29.87 in 4.0 mi NE 8.1 mph - N/A   Overcast
6:18 AM 32.0 °F 25.6 °F 30.2 °F 93% 29.87 in 4.0 mi NE 6.9 mph - N/A   Overcast
6:37 AM 32.0 °F 25.6 °F 30.2 °F 93% 29.87 in 3.0 mi NE 6.9 mph - N/A   Overcast
6:57 AM 32.0 °F 27.5 °F 30.2 °F 93% 29.88 in 4.0 mi ENE 4.6 mph - N/A   Overcast
7:18 AM 32.0 °F 26.4 °F 30.2 °F 93% 29.89 in 3.0 mi NNE 5.8 mph - N/A   Overcast
7:37 AM 32.0 °F 24.8 °F 30.2 °F 93% 29.89 in 3.0 mi NE 8.1 mph - N/A   Overcast
7:57 AM 32.0 °F 25.6 °F 30.2 °F 93% 29.89 in 3.0 mi East 6.9 mph - N/A   Overcast
8:18 AM 32.0 °F 25.6 °F 30.2 °F 93% 29.89 in 3.0 mi NE 6.9 mph - N/A   Overcast
8:37 AM 32.0 °F 25.6 °F 30.2 °F 93% 29.90 in 4.0 mi ENE 6.9 mph - N/A   Overcast
8:57 AM 32.0 °F 28.7 °F 30.2 °F 93% 29.91 in 4.0 mi ENE 3.5 mph - N/A   Overcast
9:17 AM 32.0 °F 26.4 °F 30.2 °F 93% 29.91 in 5.0 mi East 5.8 mph - N/A   Overcast
9:37 AM 32.0 °F 26.4 °F 30.2 °F 93% 29.91 in 4.0 mi East 5.8 mph - N/A   Overcast
9:57 AM 33.8 °F 28.6 °F 32.0 °F 93% 29.90 in 5.0 mi ESE 5.8 mph - N/A   Overcast
10:17 AM 33.8 °F 26.4 °F 30.2 °F 87% 29.89 in 5.0 mi East 9.2 mph - N/A   Haze
10:37 AM 35.6 °F 28.0 °F 32.0 °F 87% 29.88 in 7.0 mi East 10.4 mph - N/A   Mostly Cloudy
10:57 AM 37.4 °F 29.8 °F 32.0 °F 81% 29.87 in 7.0 mi East 11.5 mph - N/A   Scattered Clouds
11:17 AM 39.2 °F 32.5 °F 32.0 °F 75% 29.87 in 7.0 mi East 10.4 mph 16.1 mph N/A   Clear
11:37 AM 41.0 °F 33.9 °F 32.0 °F 70% 29.86 in 5.0 mi East 12.7 mph - N/A   Haze
11:57 AM 42.8 °F 36.6 °F 32.0 °F 66% 29.85 in 5.0 mi East 11.5 mph - N/A   Haze
12:17 PM 44.6 °F 38.4 °F 32.0 °F 61% 29.84 in 7.0 mi East 12.7 mph - N/A   Clear
12:37 PM 44.6 °F 37.8 °F 33.8 °F 66% 29.82 in 10.0 mi East 15.0 mph - N/A   Clear
12:57 PM 46.4 °F 40.4 °F 33.8 °F 62% 29.82 in 10.0 mi ESE 13.8 mph - N/A   Scattered Clouds
1:17 PM 50.0 °F - 33.8 °F 54% 29.81 in 10.0 mi SE 13.8 mph - N/A   Scattered Clouds
1:37 PM 50.0 °F - 33.8 °F 54% 29.80 in 10.0 mi SE 15.0 mph 20.7 mph N/A   Clear
1:57 PM 50.0 °F - 35.6 °F 58% 29.79 in 10.0 mi SSE 16.1 mph 20.7 mph N/A   Clear
2:17 PM 51.8 °F - 35.6 °F 54% 29.79 in 10.0 mi SE 15.0 mph 20.7 mph N/A   Clear
2:37 PM 50.0 °F - 35.6 °F 58% 29.79 in 10.0 mi SE 16.1 mph 19.6 mph N/A   Scattered Clouds
2:58 PM 50.0 °F - 35.6 °F 58% 29.78 in 10.0 mi SE 15.0 mph - N/A   Overcast
3:17 PM 50.0 °F - 35.6 °F 58% 29.77 in 10.0 mi ESE 12.7 mph 20.7 mph N/A   Overcast
3:37 PM 50.0 °F - 37.4 °F 62% 29.75 in 10.0 mi ESE 12.7 mph 17.3 mph N/A   Overcast
3:58 PM 50.0 °F - 35.6 °F 58% 29.75 in 10.0 mi SE 12.7 mph 18.4 mph N/A   Mostly Cloudy
4:17 PM 50.0 °F - 35.6 °F 58% 29.76 in 10.0 mi SSE 11.5 mph - N/A   Overcast
4:37 PM 50.0 °F - 37.4 °F 62% 29.76 in 10.0 mi SSE 10.4 mph - N/A Rain Light Rain
4:57 PM 48.2 °F - 39.2 °F 71% 29.76 in 7.0 mi SE 10.4 mph - N/A   Overcast
5:17 PM 48.2 °F - 39.2 °F 71% 29.76 in 7.0 mi ESE 6.9 mph - N/A   Drizzle
5:37 PM 50.0 °F - 41.0 °F 71% 29.76 in 7.0 mi SE 6.9 mph - N/A Rain Light Rain
5:57 PM 48.2 °F - 41.0 °F 76% 29.75 in 7.0 mi ESE 8.1 mph - N/A Rain Rain
6:17 PM 48.2 °F - 42.8 °F 82% 29.75 in 5.0 mi ESE 6.9 mph - 0.01 in Rain Light Rain
6:37 PM 46.4 °F 43.5 °F 42.8 °F 87% 29.75 in 5.0 mi ESE 5.8 mph - 0.02 in Rain Rain
6:57 PM 46.4 °F 45.2 °F 42.8 °F 87% 29.75 in 4.0 mi ESE 3.5 mph - 0.01 in Rain Light Rain
7:17 PM 46.4 °F 45.2 °F 42.8 °F 87% 29.75 in 4.0 mi ESE 3.5 mph - 0.03 in Rain Light Rain
7:37 PM 46.4 °F 43.5 °F 42.8 °F 87% 29.74 in 4.0 mi ESE 5.8 mph - 0.04 in Rain Light Rain
7:57 PM 46.4 °F - 42.8 °F 87% 29.73 in 4.0 mi Calm Calm - 0.02 in Rain Rain
8:17 PM 46.4 °F 44.3 °F 42.8 °F 87% 29.72 in 3.0 mi ENE 4.6 mph - 0.05 in Rain Rain
8:37 PM 44.6 °F 40.2 °F 42.8 °F 93% 29.70 in 4.0 mi ENE 8.1 mph - 0.08 in Rain Light Rain
8:57 PM 44.6 °F 40.2 °F 42.8 °F 93% 29.70 in 4.0 mi East 8.1 mph - N/A Rain Rain
9:17 PM 44.6 °F 40.2 °F 42.8 °F 93% 29.71 in 4.0 mi East 8.1 mph - N/A Rain Light Rain
9:37 PM 44.6 °F 43.1 °F 42.8 °F 93% 29.71 in 4.0 mi NE 3.5 mph - N/A Rain Light Rain
9:57 PM 44.6 °F - 42.8 °F 93% 29.71 in 3.0 mi Calm Calm - 0.02 in Rain Light Rain
10:17 PM 44.6 °F 39.7 °F 42.8 °F 93% 29.69 in 2.5 mi East 9.2 mph - 0.05 in Rain Rain
10:37 PM 44.6 °F 39.7 °F 42.8 °F 93% 29.68 in 4.0 mi East 9.2 mph - 0.06 in   Overcast
10:57 PM 46.4 °F 42.9 °F 42.8 °F 87% 29.68 in 4.0 mi East 6.9 mph - N/A   Overcast
11:17 PM 44.6 °F 41.4 °F 42.8 °F 93% 29.68 in 4.0 mi ENE 5.8 mph - N/A   Light Drizzle
11:37 PM 44.6 °F 40.7 °F 42.8 °F 93% 29.67 in 4.0 mi East 6.9 mph - N/A   Overcast
11:57 PM 44.6 °F 42.2 °F 42.8 °F 93% 29.67 in 4.0 mi ENE 4.6 mph - N/A   Overcast